Flag Weather past 2 weeks in Celje, Slovenia

Now
41 °F

Quite cool.


Feels Like: 41 °F
Forecast: 30 / 43 °F
Wind: 2 mph from East

Location: Celje

Current Time: Nov 24, 2014 at 4:21:07 PM

Latest Report: Nov 24, 2014 at 3:00 PM


Visibility: N/A

Pressure: 30.31 "Hg

Humidity: 89%

Dew point: 38 °F

Location of CeljeLocation

Historic Weather in Celje — Graph

°F

Celje temperature yesterday

Maximum temperature yesterday: 41 °F (at 3:00 PM)
Minimum temperature yesterday: 32 °F (at 1:00 AM)
Average temperature yesterday: 38 °F

Past Weeks' High & Low Weather Summary

 TemperatureHumidityPressure
High65 °F (Nov 11, 2:00 PM)100% (Nov 11, 7:00 AM)30.44 "Hg (Nov 11, 7:00 AM)
Low32 °F (Nov 23, 1:00 AM)54% (Nov 16, 4:00 PM)29.67 "Hg (Nov 18, 4:00 AM)
Average48 °F92%30.03 "Hg
* Reported Nov 9 3:00 PM — Nov 24 3:00 PM, Celje, Weather by CustomWeather, © 2014

Note: Actual official high and low records may vary slightly from our data, if they occured in-between our weather recording intervals... More about our weather records

Advertising

Celje weather history for previous 24 hours

 ConditionsComfort  
Time TempWeatherWind HumidityBarometerVisibility
3:00 PM
Nov 24
41 °FQuite cool.2 mph89%30.31 "HgN/A
2:00 PMN/APassing clouds.N/AN/AN/A1 mi
1:00 PM40 °FOvercast.2 mph87%30.30 "Hg6 mi
12:00 PMN/APassing clouds.N/AN/AN/A1 mi
11:00 AM40 °FChilly.2 mph89%30.33 "HgN/A
10:00 AM40 °FQuite cool.2 mph89%30.34 "HgN/A
9:00 AM39 °FChilly.1 mph90%30.34 "HgN/A
8:00 AM39 °FChilly.2 mph91%30.35 "HgN/A
7:00 AM39 °FOvercast.1 mph92%30.35 "Hg6 mi
6:00 AM39 °FFog.1 mph92%30.34 "Hg5 mi
5:00 AM40 °FFog.1 mph92%30.36 "Hg5 mi
4:00 AM39 °FOvercast.No wind93%30.36 "Hg6 mi
3:00 AM39 °FChilly.1 mph91%30.38 "HgN/A
2:00 AM39 °FChilly.1 mph91%30.40 "HgN/A
1:00 AM39 °FChilly.No wind91%30.41 "HgN/A
12:00 AM39 °FChilly.1 mph91%30.42 "HgN/A
11:00 PM
Nov 23
39 °FChilly.2 mph91%30.43 "HgN/A
10:00 PM39 °FChilly.1 mph94%30.43 "HgN/A
9:00 PM39 °FChilly.1 mph93%30.44 "HgN/A
8:00 PM39 °FChilly.2 mph92%30.43 "HgN/A
7:00 PM40 °FDrizzle. Overcast.1 mph93%30.43 "Hg2 mi
6:00 PM40 °FChilly.2 mph93%30.42 "HgN/A
5:00 PM40 °FQuite cool.1 mph90%30.41 "HgN/A
4:00 PM41 °FQuite cool.1 mph90%30.40 "HgN/A
Weather by CustomWeather, © 2014

See weather overviewHow to use our weather pages